Assumption Island Airport

Jump to: basic info | weather | runways | comments

Related pages: nearby airports | nearby navaids | notams | map

Basic information (top)

Codes: FSAS
Location: lon -9.742220, lat 46.506802, elev 10 ft / 3 m msl
Status: small_airport

Weather (top)

Current conditions for Prince Said Ibrahim International Airport 219nm (406km) WSW (rec'd 2014/10/02 06:00Z):

FMCH 020600Z 29004KT 250V320 9999 FEW020 SCT030 27/23 Q1016 NOSIG

Airport forecast for Prince Said Ibrahim International Airport 219nm (406km) WSW (rec'd 2014/10/02 06:00Z):

TAF FMCH 020500Z 0206/0312 27012KT 9999 FEW020 SCT030 PROB30 
      TEMPO 0210/0215 SHRA 
      BECMG 0216/0218 09004KT 
      BECMG 0304/0306 24010KT

Runways (top)

13/31: 3,963 x 75 ft (1,208 x 23 m) — paved — not lighted

Latest comments (top)

No comments yet for Assumption Island Airport

More... (top)

See also NOTAMs and nearby airports and navaids, or visit the Assumption Island Airport page at the main OurAirports website..